Wind_Speed
36 37 38 39 40 41 40 42 41 41 42 41 44 45 47 47 51 54 61 66 70 69 70 68 66 63 61 60 60 55 56 54 53
41 42 42 41 42 42 43 43 44 44 42 42 44 42 45 50 51 51 55 59 68 73 73 72 71 70 68 65 65 65 61 61 58
42 43 44 44 44 44 44 44 45 46 47 47 48 46 46 46 47 54 53 56 61 71 74 77 76 76 74 72 68 68 65 64 61
43 42 42 42 43 44 45 46 46 47 46 48 50 52 51 50 49 51 50 51 58 62 66 78 80 79 80 79 76 71 72 67 66
41 41 40 43 44 46 47 46 47 47 47 48 52 54 56 57 61 59 58 58 57 58 62 67 76 81 82 82 80 81 76 73 69
39 39 40 41 42 43 45 46 48 48 48 50 51 52 55 58 61 65 66 67 66 64 63 66 69 77 85 87 83 80 83 79 76
40 41 41 43 45 47 48 49 51 52 53 54 55 57 57 58 62 64 69 71 74 72 72 72 70 73 80 87 90 88 85 84 80
44 47 46 48 49 50 51 53 55 55 57 60 62 65 67 66 67 70 71 74 77 80 82 83 80 78 77 80 85 92 90 89 88
49 50 50 51 53 56 58 60 61 61 64 67 71 73 74 75 75 76 77 80 79 81 83 84 87 88 85 83 82 85 89 92 91
51 52 53 56 59 61 64 66 68 72 74 78 81 82 85 89 90 88 87 88 89 93 94 93 91 91 93 92 89 86 85 88 92
54 55 57 60 63 67 69 72 74 78 83 86 90 91 94 97 100 101 103 105 104 106 106 107 103 102 97 97 98 92 87 85 90
57 58 62 65 70 72 73 80 82 85 89 94 96 100 105 108 110 112 115 116 118 118 120 120 119 115 109 101 102 98 92 89 86
60 63 65 69 74 75 80 85 87 92 95 98 101 107 111 113 117 119 120 122 128 130 134 132 133 129 121 112 108 107 100 94 90
62 64 67 72 77 81 83 88 92 99 101 105 111 118 121 124 126 126 123 106 98 99 108 117 125 134 137 127 123 113 107 99 95
63 65 70 74 81 85 90 94 100 107 109 114 119 123 127 131 130 119 103 93 87 86 91 102 112 117 131 140 133 124 118 107 99
70 75 80 83 88 94 98 102 109 115 120 121 124 129 132 133 119 107 94 82 81 78 80 86 96 104 113 129 139 135 123 117 107
78 81 85 88 92 99 104 109 114 122 127 130 134 131 130 120 103 95 85 71 71 72 73 75 82 90 101 115 131 139 130 125 116
85 89 91 93 98 104 110 114 122 126 134 140 139 137 118 100 96 89 82 65 63 65 68 71 76 79 85 103 122 134 134 132 122
91 94 96 99 103 109 115 120 126 134 137 143 141 129 112 94 78 82 79 61 55 61 63 68 71 75 76 89 115 132 134 133 126
94 98 99 103 109 113 119 126 134 140 144 141 130 116 104 90 74 65 74 60 47 58 60 64 67 71 71 78 98 123 132 134 133
Wind_Direction
305 306 306 302 301 301 301 301 295 295 291 277 271 261 258 259 257 256 252 248 243 244 244 244 240 234 235 235 231 232 230 230 229
306 306 305 304 303 302 300 298 298 296 293 287 287 277 267 265 258 259 256 252 247 243 241 243 241 239 234 231 232 234 234 230 230
303 302 302 303 302 300 300 298 297 294 293 289 287 281 279 275 273 262 259 256 253 247 243 242 242 240 237 235 230 230 232 230 231
303 302 302 302 301 299 299 298 296 293 291 287 285 280 279 276 272 271 265 260 257 254 252 246 243 240 239 237 235 231 230 230 231
302 302 301 301 302 302 302 303 301 297 294 290 287 282 277 279 275 271 267 267 262 256 254 251 248 244 241 239 238 236 232 232 230
312 311 308 306 305 304 302 301 299 296 293 290 287 282 280 279 276 272 267 265 262 261 256 252 250 247 244 241 238 237 238 233 232
311 309 308 308 307 305 302 300 297 294 293 294 289 285 282 279 274 272 268 266 263 261 259 254 251 249 247 244 240 239 237 237 234
307 308 308 307 307 306 302 301 300 297 295 294 293 289 284 281 278 270 266 263 262 259 258 257 253 247 244 243 243 239 238 237 235
306 306 307 307 308 308 307 306 304 301 300 300 299 297 293 287 283 278 271 264 258 261 261 256 251 248 247 241 239 239 238 236 235
307 307 307 307 307 307 307 306 307 306 305 304 302 300 297 293 288 281 276 270 263 258 259 257 252 248 246 242 241 237 235 235 233
309 308 308 308 309 308 309 310 307 306 306 305 303 300 296 294 290 285 281 277 268 261 256 254 248 242 246 243 239 237 235 231 232
309 311 310 310 309 310 310 310 308 307 306 305 303 302 300 295 294 290 282 276 270 260 254 251 244 238 240 238 236 234 234 232 229
311 312 311 311 311 310 308 310 309 309 306 304 302 301 300 296 293 290 283 275 269 264 258 251 242 236 233 233 230 230 230 230 229
310 309 311 312 310 309 310 311 310 309 308 308 307 307 305 302 299 298 291 284 274 264 257 256 247 240 236 228 225 223 225 225 225
311 313 311 311 311 312 313 313 312 312 311 312 310 309 308 307 303 298 292 284 277 266 257 250 246 241 238 235 229 219 219 220 220
313 312 311 312 313 313 313 313 314 315 314 314 313 313 311 306 303 297 290 283 276 268 258 251 246 240 233 231 232 227 219 217 214
316 315 314 313 314 314 315 314 315 316 317 316 317 315 310 306 303 296 289 282 273 265 259 251 245 241 233 227 225 227 224 216 214
317 318 317 317 316 317 316 318 318 319 319 320 319 314 311 308 304 295 289 282 272 263 255 250 244 240 235 225 219 223 224 219 216
317 317 316 317 317 318 318 321 320 322 322 321 318 314 311 307 302 295 289 282 271 262 250 245 241 237 231 224 218 217 221 221 217
317 316 316 318 318 319 321 323 323 324 323 322 316 312 309 306 300 293 287 283 270 258 247 241 237 234 229 222 216 214 217 217 216
Height
10742 10741 10738 10737 10735 10732 10731 10729 10727 10725 10724 10723 10724 10723 10723 10724 10724 10724 10727 10730 10735 10739 10744 10748 10752 10756 10761 10767 10772 10777 10779 10782 10784
10736 10733 10731 10729 10727 10725 10723 10721 10720 10718 10716 10715 10715 10714 10716 10715 10715 10716 10716 10717 10721 10725 10728 10731 10738 10743 10747 10752 10758 10763 10768 10771 10775
10728 10727 10724 10721 10719 10717 10715 10713 10710 10709 10708 10707 10706 10706 10705 10705 10705 10705 10706 10705 10707 10710 10713 10717 10721 10727 10733 10738 10743 10748 10754 10758 10763
10722 10719 10716 10713 10710 10708 10706 10704 10701 10700 10698 10698 10697 10696 10696 10696 10696 10696 10696 10695 10696 10697 10700 10704 10707 10710 10716 10722 10727 10733 10739 10744 10750
10714 10710 10708 10705 10702 10699 10697 10694 10692 10690 10689 10688 10686 10685 10685 10685 10684 10684 10683 10684 10683 10685 10686 10687 10690 10696 10700 10705 10711 10716 10722 10729 10735
10706 10703 10700 10698 10695 10691 10688 10685 10683 10681 10679 10677 10675 10673 10672 10672 10670 10670 10670 10669 10669 10670 10671 10672 10674 10676 10681 10688 10693 10699 10706 10713 10720
10698 10694 10692 10689 10686 10683 10679 10676 10673 10670 10668 10666 10663 10660 10659 10657 10656 10654 10653 10651 10652 10653 10654 10656 10657 10659 10663 10667 10674 10681 10687 10695 10703
10690 10686 10683 10680 10676 10672 10668 10664 10661 10657 10655 10651 10648 10646 10643 10640 10638 10637 10634 10632 10629 10630 10632 10634 10637 10639 10642 10646 10652 10660 10668 10675 10685
10681 10677 10672 10668 10663 10659 10654 10649 10645 10641 10637 10633 10628 10623 10619 10616 10615 10613 10611 10610 10607 10607 10609 10610 10612 10616 10619 10624 10630 10635 10645 10655 10664
10671 10666 10661 10656 10650 10645 10638 10633 10627 10620 10614 10609 10604 10598 10592 10586 10583 10582 10579 10579 10577 10576 10576 10579 10583 10587 10593 10600 10607 10613 10621 10632 10643
10659 10653 10647 10641 10635 10629 10622 10616 10609 10602 10595 10587 10578 10571 10563 10555 10547 10543 10541 10536 10535 10533 10532 10535 10541 10550 10558 10569 10581 10590 10600 10609 10621
10646 10639 10632 10625 10617 10610 10603 10596 10590 10583 10574 10564 10552 10541 10529 10516 10507 10499 10490 10483 10477 10474 10476 10479 10488 10501 10517 10533 10550 10563 10575 10587 10597
10631 10624 10617 10609 10600 10593 10586 10577 10569 10559 10549 10539 10527 10514 10499 10482 10465 10450 10434 10424 10415 10412 10415 10423 10433 10449 10468 10492 10511 10531 10547 10562 10575
10619 10610 10602 10594 10585 10574 10566 10556 10546 10537 10523 10508 10491 10473 10453 10430 10409 10389 10366 10357 10356 10354 10355 10366 10381 10403 10423 10442 10465 10491 10514 10533 10551
10604 10594 10585 10577 10567 10555 10543 10532 10519 10503 10487 10472 10453 10432 10406 10377 10356 10331 10318 10310 10307 10307 10308 10313 10324 10346 10373 10404 10425 10447 10474 10500 10523
10588 10579 10568 10556 10544 10530 10517 10503 10487 10468 10446 10431 10415 10388 10358 10327 10307 10286 10277 10276 10269 10269 10268 10274 10283 10299 10324 10351 10383 10409 10435 10465 10491
10571 10560 10547 10535 10521 10505 10490 10475 10460 10438 10410 10387 10365 10348 10330 10289 10270 10248 10241 10245 10238 10236 10239 10243 10251 10266 10285 10311 10342 10371 10403 10428 10459
10550 10537 10523 10509 10495 10480 10463 10446 10425 10405 10376 10344 10313 10290 10276 10258 10231 10213 10205 10216 10211 10208 10209 10215 10224 10237 10254 10277 10307 10336 10368 10399 10428
10528 10515 10500 10486 10471 10454 10436 10416 10392 10364 10344 10314 10277 10248 10229 10221 10221 10187 10173 10186 10187 10182 10184 10189 10199 10211 10229 10249 10276 10304 10333 10369 10404
10509 10495 10480 10463 10447 10428 10409 10388 10359 10332 10306 10277 10248 10223 10201 10185 10184 10175 10147 10157 10166 10158 10161 10167 10177 10190 10207 10226 10251 10279 10312 10339 10370